User: anonymous   Login
Location: Newark
(35.8833°N, 14.5000°E)
Time: 13:39:16
(UTC+00:00)
Language:

NOAA 15 - Orbit

View from above orbital plane
View from above orbital plane
View from above satellite
View from above satellite

Ground track
Ground track

The orbit data is extracted from the following two-line orbital elements,

1 25338U 98030A   19290.87989364 +.00000012 +00000-0 +23653-4 0  9992
2 25338 098.7406 311.8924 0009443 248.6133 111.4039 14.25935141114260
Epoch (UTC): 17 October 2019 21:07:02
Eccentricity: 0.0009443
inclination: 98.7406°
perigee height: 798 km
apogee height: 812 km
right ascension of ascending node: 311.8924°
argument of perigee: 248.6133°
revolutions per day: 14.25935141
mean anomaly at epoch: 111.4039°
orbit number at epoch: 11426

The dashed part of the orbit path shows where the satellite is in the earth's shadow,  

DLR